Track COSMOS 621 now! 10-day predictions COSMOS 621 is classified as:
1 06989U 73104E 21110.69469017 -.00000005 00000-0 70838-4 0 9990 2 06989 74.0258 111.0682 0050476 181.8437 298.7728 12.54636989168026